[[{"header":{"parameterUnit":"m.s-1","parameterCategory":1,"la1":30.2991,"la2":30.254,"lo1":-89.0895,"lo2":-89.0444,"dy":0.0017,"dx":0.0017,"nx":28,"ny":28,"refTime":"2023-08-13T03:00:00:Z","depth":0,"parameterNumber":2,"parameterNumberName":"U-component_of_WINDS"},"data":[0,0,0,0,0,0,0,0,0,0,0,0,0,0,0,0,0,0,0,0,0,0,0,0,0,0,0,0,0,0,0,0,0,0,0,0,0,0,0,0,0,0,0,0,0,0,0,0,0,0,0,0,0,0,0,0,0,0,1.1746,1.1747,0,1.1838,1.1839,1.184,1.1863,1.1862,1.1862,1.1861,1.196,1.1963,1.1966,0,0,0,0,0,0,0,0,0,0,0,0,0,1.1596,1.1599,1.1746,1.1747,1.1749,1.1838,1.1839,1.184,1.1863,1.1862,1.1862,1.1861,1.1959,1.1963,1.1966,0,0,0,0,0,0,0,0,0,0,0,0,0,1.1672,1.16,1.1746,1.1771,1.1774,1.1837,1.1839,1.184,1.1863,1.1862,1.1861,1.186,1.1958,1.1962,1.1967,1.2014,0,0,1.1982,1.1984,0,0,0,0,0,0,0,0,1.1668,1.1677,1.1766,1.1769,1.1773,1.1838,1.1822,1.1899,1.1863,1.1829,1.1861,1.186,1.192,1.1928,1.1947,1.2019,1.2023,1.1982,1.1985,1.1987,1.1988,0,0,0,0,0,0,0,1.1662,1.1674,1.1783,1.1767,1.1771,1.1778,1.1788,1.1837,1.1879,1.1832,1.1834,1.1844,1.1922,1.1943,1.195,1.2025,1.1982,1.1986,1.1989,1.1991,1.214,1.2141,0,0,0,0,0,0,1.1652,1.1669,1.178,1.1785,1.1717,1.1782,1.1793,1.1818,1.1878,1.1887,1.1845,1.1845,1.1935,1.1944,1.1954,1.2013,1.1987,1.1991,1.1994,1.2139,1.214,1.2141,0,0,0,0,0,0,1.1649,1.1662,1.1776,1.1728,1.1743,1.1785,1.1813,1.182,1.1841,1.1888,1.1896,1.1858,1.1935,1.1947,1.1999,1.2017,1.1994,1.1998,1.2137,1.2139,1.2141,1.2132,0,0,0,0,0,0,1.1644,1.166,1.1678,1.1728,1.1745,1.1818,1.1814,1.1823,1.1848,1.1849,1.1902,1.191,1.1935,1.1991,1.2003,1.2023,1.2002,1.2136,1.2138,1.214,1.213,1.2133,1.2135,0,0,0,0,0,1.1639,1.1673,1.1678,1.1692,1.1768,1.1819,1.1829,1.1855,1.185,1.1868,1.1898,1.1909,1.2012,1.1997,1.201,1.2031,1.2135,1.2138,1.214,1.213,1.2132,1.2135,0,0,0,0,0,0,1.1625,1.168,1.1687,1.1737,1.1773,1.1823,1.1847,1.1857,1.1897,1.1896,1.1929,1.1941,1.199,1.2016,1.1997,1.208,1.2074,1.2079,1.2061,1.2064,1.2066,1.2059,1.2006,0,0,0,0,0,1.1628,1.1664,1.171,1.175,1.1768,1.1804,1.1828,1.1844,1.1884,1.1899,1.1934,1.1972,1.2014,1.2041,1.2081,1.2134,1.2147,1.2156,1.2158,1.2159,1.2163,1.2193,1.2198,1.2149,1.2149,1.2149,0,0,1.1634,1.1668,1.1689,1.1748,1.1778,1.1816,1.1817,1.1857,1.1885,1.1906,1.1956,1.1983,1.2029,1.2081,1.2106,1.2104,1.2179,1.2162,1.2163,1.2167,1.2196,1.2201,1.2205,1.2151,1.2151,1.215,0,0,1.1665,1.1694,1.1731,1.176,1.1804,1.1828,1.1837,1.1885,1.1903,1.1954,1.197,1.2005,1.2076,1.2107,1.2133,1.2175,1.2186,1.2188,1.2198,1.2227,1.2231,1.2235,1.225,1.2255,1.2192,1.2192,1.2192,0,1.1668,1.1723,1.1749,1.1787,1.1813,1.1832,1.187,1.1898,1.1954,1.1972,1.1969,1.2057,1.2089,1.2149,1.2159,1.2179,1.2191,1.2182,1.2228,1.2232,1.2236,1.225,1.2256,1.2192,1.2192,1.2192,1.2192,0,1.1725,1.1763,1.1788,1.1839,1.1868,1.1906,1.1939,1.1965,1.1979,1.2004,1.2056,1.2095,1.2143,1.2159,1.2174,1.2221,1.2219,1.2221,1.2216,1.224,1.2254,1.226,1.2191,1.2191,1.2191,1.2191,0,0,1.1749,1.1814,1.1822,1.1846,1.1896,1.1927,1.1967,1.2013,1.2035,1.2073,1.2107,1.2166,1.2169,1.2198,1.2217,1.2242,1.2272,1.2242,1.2243,1.2246,1.2327,1.2324,1.233,1.228,1.2281,1.2282,1.2323,0,1.1786,1.1855,1.1879,1.1937,1.1974,1.1992,1.2026,1.2061,1.2085,1.2121,1.2148,1.2189,1.219,1.2207,1.2233,1.2263,1.2289,1.2261,1.2313,1.2315,1.2301,1.2338,1.2336,1.2372,1.2329,1.233,1.2331,0,1.1838,1.1875,1.1936,1.1981,1.1998,1.2028,1.2072,1.2105,1.2146,1.2162,1.2193,1.221,1.2253,1.2245,1.2305,1.2285,1.2308,1.2327,1.2329,1.2335,1.2324,1.2345,1.2385,1.239,1.234,1.2339,1.2338,0,1.185,1.1915,1.196,1.198,1.2034,1.2055,1.2079,1.2118,1.2144,1.2183,1.2201,1.2245,1.2269,1.2303,1.2332,1.2323,1.239,1.2384,1.2405,1.2404,1.2419,1.2417,1.2462,1.2433,1.2433,1.2433,1.2433,0,1.1889,1.1925,1.1966,1.1994,1.2036,1.2063,1.2105,1.213,1.2165,1.2198,1.2217,1.2249,1.2285,1.2321,1.2344,1.2391,1.2402,1.2417,1.2422,1.2415,1.2413,1.2431,1.2429,1.2435,1.2434,1.2434,1.2434,0,1.1909,1.1938,1.1988,1.2034,1.2047,1.2076,1.2116,1.2144,1.2169,1.2211,1.2223,1.2262,1.2306,1.2338,1.2395,1.2411,1.2461,1.2466,1.2446,1.2449,1.2468,1.2466,1.2526,1.2536,1.25,1.2501,1.2501,0,1.1932,1.196,1.2009,1.2032,1.2055,1.2093,1.2119,1.2147,1.2174,1.2222,1.2245,1.229,1.2327,1.2397,1.2431,1.2475,1.2482,1.25,1.2489,1.248,1.2482,1.248,1.2483,1.2502,1.2502,1.2502,1.2502,0,1.1969,1.1981,1.2017,1.2059,1.2089,1.2123,1.2158,1.2176,1.2211,1.224,1.2284,1.2313,1.2371,1.2415,1.2462,1.2489,1.2502,1.2505,1.2513,1.2505,1.2492,1.2499,1.2451,1.2504,1.2504,1.2504,1.2504,1.2504,1.1991,1.2017,1.2055,1.2095,1.2124,1.2155,1.2184,1.2211,1.2248,1.2296,1.2311,1.2357,1.2397,1.2462,1.2488,1.2525,1.2525,1.2535,1.2538,1.254,1.2539,1.2486,1.2534,1.2534,1.2534,1.2534,1.2534,0,1.2029,1.2054,1.209,1.2137,1.2169,1.2177,1.2215,1.2241,1.2281,1.2317,1.2352,1.2403,1.2446,1.2484,1.2529,1.2551,1.2558,1.2562,1.2561,1.2567,1.2537,1.2527,1.2556,1.2556,1.2556,1.2556,1.2556,1.2556,1.2052,1.2096,1.2114,1.2172,1.2198,1.2242,1.2263,1.2293,1.2321,1.2377,1.2412,1.2435,1.2472,1.252,1.256,1.257,1.2586,1.2588,1.2599,1.2571,1.2569,1.2566,1.2556,1.2591,1.2591,1.2626,1.2626,1.2626]},{"header":{"parameterUnit":"m.s-1","parameterCategory":1,"la1":30.2991,"la2":30.254,"lo1":-89.0895,"lo2":-89.0444,"dy":0.0017,"dx":0.0017,"nx":28,"ny":28,"refTime":"2023-08-13T03:00:00:Z","depth":0,"parameterNumber":3,"parameterNumberName":"V-component_of_WINDS"},"data":[0,0,0,0,0,0,0,0,0,0,0,0,0,0,0,0,0,0,0,0,0,0,0,0,0,0,0,0,0,0,0,0,0,0,0,0,0,0,0,0,0,0,0,0,0,0,0,0,0,0,0,0,0,0,0,0,0,0,3.5723,3.5723,0,3.5777,3.5778,3.5779,3.5804,3.5804,3.5804,3.5804,3.5855,3.5857,3.5858,0,0,0,0,0,0,0,0,0,0,0,0,0,3.5633,3.5634,3.5723,3.5723,3.5724,3.5777,3.5778,3.5779,3.5804,3.5804,3.5804,3.5804,3.5855,3.5856,3.5858,0,0,0,0,0,0,0,0,0,0,0,0,0,3.5678,3.5635,3.5723,3.5743,3.5745,3.5777,3.5778,3.5779,3.5804,3.5804,3.5804,3.5804,3.5854,3.5856,3.5858,3.5873,0,0,3.5865,3.5866,0,0,0,0,0,0,0,0,3.5675,3.5681,3.5739,3.5742,3.5744,3.5784,3.5765,3.581,3.5804,3.5781,3.5804,3.5804,3.5831,3.5835,3.5846,3.5875,3.5877,3.5865,3.5866,3.5867,3.5868,0,0,0,0,0,0,0,3.5672,3.5679,3.5744,3.574,3.5743,3.5747,3.5753,3.5774,3.5806,3.5783,3.5785,3.5792,3.5833,3.5843,3.5847,3.5878,3.5865,3.5867,3.5868,3.5869,3.5918,3.5918,0,0,0,0,0,0,3.5666,3.5676,3.5743,3.5746,3.5709,3.5749,3.5756,3.5771,3.5806,3.5811,3.5792,3.5793,3.584,3.5844,3.5849,3.5866,3.5867,3.5869,3.587,3.5918,3.5918,3.5918,0,0,0,0,0,0,3.5664,3.5672,3.574,3.5712,3.5721,3.575,3.5767,3.5772,3.5783,3.5812,3.5817,3.5797,3.584,3.5846,3.5866,3.5868,3.587,3.5872,3.5918,3.5918,3.5918,3.5901,0,0,0,0,0,0,3.5662,3.5671,3.5679,3.5712,3.5722,3.5759,3.5768,3.5773,3.5787,3.5789,3.5819,3.5824,3.584,3.5863,3.5868,3.5871,3.5874,3.5918,3.5918,3.5918,3.5901,3.59,3.5899,0,0,0,0,0,3.5659,3.5672,3.5679,3.5687,3.5733,3.5759,3.5765,3.5785,3.5788,3.5794,3.5812,3.5823,3.5867,3.5865,3.5871,3.5874,3.5918,3.5918,3.5918,3.5902,3.59,3.5899,0,0,0,0,0,0,3.5638,3.5677,3.5685,3.571,3.5731,3.5763,3.5772,3.5783,3.5803,3.5804,3.5826,3.5833,3.585,3.5864,3.5861,3.5888,3.5893,3.5894,3.5878,3.5877,3.5876,3.5872,3.5876,0,0,0,0,0,3.5637,3.5657,3.5688,3.5707,3.5717,3.5743,3.5755,3.5768,3.579,3.5799,3.5819,3.5838,3.5856,3.5867,3.5886,3.5903,3.5908,3.5908,3.5907,3.5906,3.5907,3.5914,3.5913,3.5918,3.5918,3.5918,0,0,3.5634,3.5657,3.5668,3.5703,3.5721,3.5739,3.575,3.5769,3.5782,3.5802,3.5822,3.5836,3.5859,3.5877,3.5886,3.5889,3.5906,3.5906,3.5905,3.5906,3.5914,3.5913,3.5913,3.5918,3.5918,3.5918,0,0,3.5637,3.5658,3.5675,3.5692,3.5718,3.5735,3.5738,3.5768,3.5778,3.5799,3.5813,3.5827,3.5859,3.5874,3.5885,3.589,3.5899,3.5895,3.5889,3.5896,3.5896,3.5895,3.5895,3.5895,3.5895,3.5895,3.5895,0,3.563,3.5659,3.5681,3.5699,3.5712,3.5731,3.5746,3.5761,3.5792,3.5799,3.5803,3.584,3.5857,3.5877,3.5878,3.5888,3.589,3.5892,3.5894,3.5894,3.5894,3.5894,3.5894,3.5895,3.5895,3.5895,3.5895,0,3.5647,3.5667,3.5676,3.5706,3.572,3.5736,3.5758,3.577,3.5781,3.5796,3.5814,3.5835,3.5856,3.5862,3.5873,3.5883,3.5884,3.589,3.5896,3.5892,3.5893,3.5893,3.5893,3.5894,3.5894,3.5894,0,0,3.5642,3.5681,3.5684,3.5696,3.5725,3.574,3.5754,3.5776,3.5784,3.5804,3.5815,3.584,3.5845,3.5858,3.5871,3.5877,3.5876,3.5882,3.5883,3.5879,3.5885,3.5879,3.5879,3.5882,3.5882,3.5882,3.5882,0,3.5649,3.5679,3.5697,3.5718,3.5734,3.575,3.5763,3.5781,3.5794,3.5808,3.5822,3.5838,3.5846,3.5853,3.586,3.5875,3.5877,3.5875,3.5891,3.5892,3.5885,3.5879,3.5874,3.5873,3.5882,3.5883,3.5883,0,3.5661,3.568,3.5703,3.5727,3.5734,3.5746,3.5765,3.5779,3.5798,3.5807,3.582,3.5832,3.5845,3.5849,3.5867,3.5865,3.5872,3.588,3.588,3.5882,3.5887,3.588,3.5873,3.5872,3.5883,3.5883,3.5883,0,3.5652,3.5683,3.57,3.571,3.5739,3.5746,3.5758,3.5777,3.5788,3.5804,3.581,3.5828,3.5837,3.5849,3.5864,3.5866,3.5879,3.5885,3.5885,3.5884,3.5887,3.5887,3.5881,3.5893,3.5893,3.5893,3.5893,0,3.5657,3.567,3.5696,3.5707,3.5721,3.574,3.5752,3.5765,3.5781,3.5792,3.5807,3.5817,3.5837,3.5848,3.586,3.5871,3.5876,3.5882,3.5885,3.588,3.5879,3.5885,3.5885,3.5893,3.5893,3.5893,3.5893,0,3.5651,3.5669,3.5688,3.5713,3.5719,3.5728,3.5748,3.5758,3.5771,3.5784,3.5789,3.5809,3.5823,3.5839,3.5859,3.5866,3.5876,3.5881,3.587,3.5872,3.587,3.587,3.5867,3.5867,3.588,3.588,3.588,0,3.5652,3.5663,3.5688,3.5697,3.5708,3.5723,3.5733,3.5751,3.5761,3.5781,3.5787,3.5802,3.5815,3.5836,3.5851,3.5865,3.587,3.5868,3.5872,3.5867,3.5868,3.5867,3.5867,3.5867,3.5867,3.5867,3.5866,0,3.5653,3.566,3.5676,3.5693,3.5705,3.5719,3.5734,3.574,3.576,3.577,3.5784,3.5794,3.5813,3.5827,3.5843,3.5853,3.5862,3.5865,3.5865,3.5861,3.5853,3.5856,3.5866,3.5865,3.5865,3.5865,3.5865,3.5865,3.5649,3.5658,3.5676,3.5691,3.5704,3.5717,3.5726,3.5739,3.5752,3.5769,3.5778,3.5792,3.5807,3.5829,3.5838,3.5848,3.5851,3.5853,3.5853,3.5852,3.585,3.5852,3.5851,3.5851,3.5851,3.5851,3.5851,0,3.5649,3.5661,3.5675,3.5694,3.5705,3.5713,3.5729,3.5737,3.5749,3.5763,3.5775,3.579,3.5803,3.5818,3.5832,3.5836,3.584,3.5839,3.5838,3.584,3.5847,3.5845,3.5835,3.5835,3.5835,3.5835,3.5835,3.5835,3.565,3.5664,3.5673,3.5692,3.5704,3.5718,3.5725,3.5736,3.5747,3.5763,3.5774,3.5784,3.5797,3.5811,3.5822,3.5826,3.583,3.5827,3.5832,3.5838,3.584,3.5841,3.5839,3.5828,3.5828,3.5823,3.5823,3.5823]}]]